Temp
12 12 12 12 12 12 11 11 11 11 12 12 12 12 12 12 12 13 13 13 12 12
11 11 10 10 10 10 10 10 10 10 10 10 11 11 11 11 12 12 12 12 12 12
9 9 9 9 9 9 9 8 9 9 9 9 9 10 10 10 11 11 11 11 11 11
8 8 8 7 7 8 7 7 7 8 8 8 8 8 8 8 8 9 9 9 9 9
7 7 6 6 6 6 6 6 6 6 6 6 6 6 6 6 6 6 6 6 6 6
6 5 5 5 4 4 5 5 5 5 5 5 5 5 5 5 5 4 4 4 4 5
5 4 2 2 3 3 3 3 3 3 3 3 3 3 3 3 3 3 3 3 3 3
4 3 3 3 2 2 2 2 2 2 1 1 0 1 1 2 2 2 2 2 2 2
3 2 2 2 2 2 2 2 1 1 1 1 0 0 1 1 1 1 1 1 1 1
2 2 2 1 1 1 1 1 1 1 1 0 0 0 -0 0 0 0 1 1 -0 0
2 1 1 1 1 1 1 1 1 1 0 -0 -1 -1 1 1 0 0 -0 -1 -1 -1
2 1 1 0 0 0 0 0 0 0 -0 -1 -1 -0 -0 -0 -1 -1 -1 -1 -2 -2
1 1 0 0 -0 -0 -0 0 -0 -1 -1 -1 -1 -2 -1 -1 -1 -1 -2 -2 -2 -2
1 1 0 -0 -0 -1 -1 -1 -1 -1 -1 -1 -1 -1 -2 -1 -1 -1 -2 -2 -2 -2
Height
816 816 816 817 817 817 817 816 815 815 814 814 813 812 810 810 809 809 809 809 810 810
815 815 815 815 816 816 816 815 814 813 812 811 810 809 808 808 808 807 807 806 807 808
814 814 814 814 815 815 815 814 813 811 810 809 808 807 806 806 806 806 805 806 806 806
812 812 813 813 813 812 812 812 811 810 809 808 806 805 805 804 805 806 806 805 806 806
810 811 811 812 811 811 810 810 810 809 808 807 806 806 806 804 804 805 805 807 807 808
809 811 808 810 810 810 809 809 808 809 807 806 805 805 805 805 805 806 806 808 809 809
808 810 808 807 810 809 809 807 809 809 807 806 805 804 804 806 806 807 807 807 810 810
808 809 807 807 808 809 809 807 810 810 809 809 807 805 805 807 806 809 807 809 811 813
806 807 807 807 805 809 808 807 810 808 809 812 810 809 808 806 808 809 809 812 813 814
804 805 807 806 805 806 808 809 811 809 811 812 813 810 809 807 809 810 812 814 815 816
802 803 805 804 804 806 808 810 810 810 811 814 814 812 809 809 810 813 814 815 816 816
799 801 803 803 804 805 808 808 810 812 813 815 814 813 812 812 814 815 816 816 817 817
797 799 800 801 803 805 808 808 810 812 813 814 814 814 813 814 814 815 816 817 817 817
795 796 798 800 803 805 807 808 810 812 812 813 814 814 814 812 813 814 815 817 817 816
Wind_Speed
3 3 4 4 4 4 4 5 6 7 7 8 9 9 9 6 8 10 12 15 14 13
3 3 4 4 4 4 4 4 5 5 5 5 5 6 6 4 6 7 6 7 9 10
3 3 4 4 4 5 5 5 4 4 4 4 4 3 3 2 4 5 5 5 6 8
4 4 4 4 5 5 5 5 4 4 3 2 2 2 1 0 2 4 4 4 4 4
5 5 5 5 5 5 4 4 3 3 2 1 1 2 2 3 4 5 6 5 5 4
5 6 4 4 3 3 3 3 2 2 1 1 2 3 4 5 6 7 8 6 3 2
6 6 4 2 2 2 3 3 3 2 2 3 3 5 7 7 9 10 11 11 9 7
6 5 5 4 3 4 4 4 4 4 5 6 6 8 10 11 14 14 16 15 15 14
9 7 7 6 7 6 6 8 8 9 9 10 10 11 13 16 16 15 15 14 12 11
10 8 8 7 8 9 9 11 11 13 12 12 11 11 13 15 15 14 12 10 9 7
11 9 9 9 10 11 12 13 13 12 12 11 10 11 13 13 13 12 12 10 8 6
12 12 11 11 12 13 14 13 13 11 11 12 11 10 10 9 9 9 8 6 6 5
14 13 14 13 14 15 14 13 12 12 11 10 10 7 6 5 5 5 4 4 4 4
14 15 15 15 15 16 15 14 14 13 12 10 8 8 6 5 4 4 3 2 2 2
Wind_Direction
211 222 236 249 252 256 264 279 295 300 299 296 293 291 294 298 281 267 256 249 237 233
186 202 208 217 226 238 254 270 286 295 299 304 309 307 295 277 266 258 236 230 213 210
193 205 210 214 228 244 262 274 278 282 292 303 317 322 320 278 253 242 220 206 205 199
228 241 250 250 255 257 263 271 274 277 287 312 335 345 339 257 187 216 204 179 176 170
221 234 245 257 260 260 258 260 263 267 271 289 52 60 75 108 126 133 131 130 132 126
219 225 210 229 239 231 226 223 217 216 181 128 119 122 118 106 114 113 111 105 104 109
219 211 194 200 228 168 154 138 133 116 91 91 115 127 124 125 123 117 108 104 93 84
204 200 186 189 179 178 165 124 110 99 95 85 91 108 124 127 122 118 110 105 103 95
194 190 192 184 171 172 153 140 141 124 115 102 97 107 121 121 119 117 117 117 116 116
199 200 199 183 168 162 155 147 140 129 120 112 114 115 120 123 123 121 124 126 122 121
200 196 193 181 172 165 159 156 144 139 139 132 118 120 115 117 115 121 122 119 114 106
199 193 188 180 173 167 163 156 151 151 142 135 123 118 116 120 126 126 124 117 107 105
199 198 191 181 175 172 171 163 162 157 155 140 129 134 131 137 128 127 125 124 141 116
197 195 189 183 181 178 177 177 171 165 157 153 154 150 157 111 119 119 118 144 160 160